This is the latest recevied weather packets stored in our database for station/object KB5DPX. If no packets are shown the sender has not sent any weather packets the latest 10 day(s).
| Time | Temp. | Humidity | Pressure | Rain* | Wind** | Luminosity | Snow |
|---|---|---|---|---|---|---|---|
| 1778185052 | 7.22° C | 62% | 1011.1 hPa | 0 mm | - | 522 W/m² | - |
| 1778184760 | 7.22° C | 63% | 1011.1 hPa | 0 mm | - | 480 W/m² | - |
| 1778184449 | 7.22° C | 64% | 1011.1 hPa | 0 mm | - | 476 W/m² | - |
| 1778184165 | 7.22° C | 63% | 1011.1 hPa | 0 mm | - | 490 W/m² | - |
| 1778183864 | 7.22° C | 64% | 1011.1 hPa | 0 mm | - | 476 W/m² | - |
| 1778183553 | 7.22° C | 64% | 1011.1 hPa | 0 mm | - | 457 W/m² | - |
| 1778183242 | 7.78° C | 61% | 1011.1 hPa | 0 mm | - | 461 W/m² | - |
| 1778182954 | 8.33° C | 58% | 1011.2 hPa | 0 mm | - | 432 W/m² | - |
| 1778182642 | 8.89° C | 53% | 1011.2 hPa | 0 mm | - | 471 W/m² | - |
| 1778182364 | 8.89° C | 53% | 1011.2 hPa | 0 mm | - | 489 W/m² | - |
| 1778182043 | 8.33° C | 51% | 1011.3 hPa | 0 mm | - | 517 W/m² | - |
| 1778181738 | 8.33° C | 52% | 1011.3 hPa | 0 mm | - | 496 W/m² | - |
| 1778181455 | 8.33° C | 52% | 1011.4 hPa | 0 mm | - | 517 W/m² | - |
| 1778181143 | 7.78° C | 53% | 1011.4 hPa | 0 mm | - | 554 W/m² | - |
| 1778180858 | 7.78° C | 54% | 1011.5 hPa | 0 mm | - | 496 W/m² | - |
| 1778180560 | 7.78° C | 58% | 1011.5 hPa | 0 mm | - | 519 W/m² | - |
| 1778180238 | 7.22° C | 64% | 1011.6 hPa | 0 mm | - | 557 W/m² | - |
| 1778179955 | 7.22° C | 64% | 1011.5 hPa | 0 mm | - | 547 W/m² | - |
| 1778179642 | 7.22° C | 64% | 1011.6 hPa | 0 mm | - | 545 W/m² | - |
| 1778179359 | 7.22° C | 65% | 1011.6 hPa | 0 mm | - | 540 W/m² | - |
| 1778179047 | 6.67° C | 67% | 1011.6 hPa | 0 mm | - | 559 W/m² | - |
| 1778178764 | 6.67° C | 69% | 1011.7 hPa | 0 mm | - | 592 W/m² | - |
| 1778178443 | 6.67° C | 70% | 1011.7 hPa | 0 mm | - | 647 W/m² | - |
| 1778178158 | 6.67° C | 70% | 1011.8 hPa | 0 mm | - | 587 W/m² | - |
| 1778177862 | 6.67° C | 70% | 1011.8 hPa | 0 mm | - | 475 W/m² | - |
* Rain latest hour (hover to see other rain measurements)
** Current wind speed in m/s (hover to see current wind gust speed)